Regional Weather Roundup
Issued by NWS

Home | Current Version | Previous Version | Graphics & Text | Print | Product List | Glossary On
Versions: 1 2 3 4 5 6 7 8 9 10 11 12 13 14 15 16 17 18 19 20 21 22 23 24 25 26 27 28 29 30 31 32 33 34 35 36 37 38 39 40 41 42 43 44 45 46 47 48 49 50
000
ASUS45 KTFX 240210
RWRMT
MONTANA REGIONAL WEATHER ROUNDUP
NATIONAL WEATHER SERVICE GREAT FALLS MT
800 PM MDT MON APR 23 2018

NOTE: "FAIR" INDICATES FEW OR NO CLOUDS BELOW 12000 FEET WITH NO
SIGNIFICANT WEATHER AND/OR OBSTRUCTIONS TO VISIBILITY.

MTZ001>007-043-240300-
WEST OF THE DIVIDE

CITY           SKY/WX    TMP DP  RH WIND       PRES   REMARKS
KALISPELL      FAIR      56  21  25 S5        30.37S
MISSOULA       FAIR      51  24  34 SE12      30.39R
BUTTE          CLOUDY    37  29  72 S7        30.40S WCI  32
MULLAN PASS    FAIR      41  17  38 VRB6      30.37R
ANACONDA         N/A     39  27  60 N5        30.40S
DEER LODGE       N/A     43  27  52 N3        30.43S
HAMILTON         N/A     48  25  40 MISG      30.38F
PLAINS           N/A     58  26  29 CALM      30.35R
RONAN            N/A     52  27  37 S5        30.39S
$$

MTZ008-052>055-240300-
SOUTHWEST MONTANA

CITY           SKY/WX    TMP DP  RH WIND       PRES   REMARKS
BOZEMAN        CLOUDY    40  32  73 SW6       30.43R
DILLON         CLOUDY    38  28  67 NE21      30.37R WCI  28
ENNIS          MOCLDY    34  30  86 N18G24    30.41R WCI  23
W YELLOWSTONE  CLOUDY    34  23  64 N8G15     30.31S WCI  27
THREE FORKS      N/A     41  33  73 CALM      30.37S
TWIN BRIDGES     N/A     40  27  60 NW16      30.31R
$$

MTZ009-010-012-014-046-048-049-054-240300-
EAST SLOPES AND CENTRAL MONTANA

CITY           SKY/WX    TMP DP  RH WIND       PRES   REMARKS
CUT BANK       FAIR      48  17  29 SE5       30.40S
GREAT FALLS    FAIR      48  19  31 CALM      30.42R
HELENA         FAIR      47  27  45 SE6       30.41S
CHOTEAU          N/A     46  18  31 E5        30.43S
WHITE SULPHUR    N/A     36  32  87 CALM      30.41R
$$

MTZ011-013-016-021-045-047-050-051-240300-
NORTH CENTRAL MONTANA

CITY           SKY/WX    TMP DP  RH WIND       PRES   REMARKS
HAVRE          FAIR      53  25  33 CALM      30.40S
LEWISTOWN      FAIR      40  33  76 SW8       30.41S
N BAR RANCH    MOCLDY    36  32  87 NW5       30.43R
$$

MTZ017>020-022>027-061-062-240300-
NORTHEAST MONTANA

CITY           SKY/WX    TMP DP  RH WIND       PRES   REMARKS
GLASGOW        FAIR      50  23  34 N6        30.35S
GLENDIVE       CLOUDY    40  37  89 W6        30.34R
JORDAN           N/A     43  34  70 CALM      30.38R
MALTA          CLEAR     52  28  40 N6        30.36S
SIDNEY         FAIR      46  28  49 N10       30.33R
WOLF POINT     FAIR      49  23  36 N6        30.36R
PLENTYWOOD       N/A     46  25  42 N7        30.34R
POPLAR           N/A     48  21  34 NE5       30.37R
$$

MTZ028>42-056>058-240300-
SOUTHCENTRAL AND SOUTHEAST MONTANA

CITY           SKY/WX    TMP DP  RH WIND       PRES   REMARKS
BAKER          LGT SNOW  32  32 100 N14       30.31R FOG     WCI  22
BILLINGS       CLOUDY    35  34  96 W7        30.44S WCI  29
LIVINGSTON     MOCLDY    36  31  82 E9        30.42S WCI  29
MILES CITY     RAIN      36  35  96 N8        30.39R WCI  30
BIG TIMBER     MOCLDY    34  34 100 CALM      30.45S
FORSYTH          N/A     34  34 100 SW5       30.43R
$$

REGIONAL REPORTS...DAKOTAS

CITY           SKY/WX    TMP DP  RH WIND       PRES   REMARKS
WILLISTON      FAIR      48  22  35 N9        30.33R
MINOT          CLOUDY    50  31  48 NW12      30.27R
DICKINSON      LGT RAIN  40  37  89 N18G31    30.25R
CROSBY         FAIR      45  25  45 N12       30.34R
TIOGA          FAIR      45  23  42 N8        30.33R
WATFORD CITY   FAIR      43  34  70 N7        30.31R
BISMARCK       CLOUDY    53  36  52 N20G29    30.21R
GRAND FORKS    MOCLDY    53  42  66 CALM      30.18R
FARGO          FAIR      56  40  55 N8        30.16R
BUFFALO SD       N/A     40  35  83 N32G38    30.12
RAPID CITY     MOCLDY    44  38  79 NW31G40   30.10R
$$

REGIONAL REPORTS...WYOMING/IDAHO/WASHINGTON

CITY           SKY/WX    TMP DP  RH WIND       PRES   REMARKS
GILLETTE       CLOUDY    33  31  92 NW22      30.32R FOG     WCI  21
SHERIDAN       CLOUDY    35  32  88 NW18      30.40R WCI  24
BUFFALO WY     CLOUDY    34  29  82 NW21G30   30.35R WCI  22
CODY           CLOUDY    35  27  72 N10       30.41R WCI  27
YELLOWSTONE LA   N/A     28  20  71 VRB3      30.34R
IDAHO FALLS    CLOUDY    46  38  73 NE8       30.29R
SALMON         CLOUDY    49  29  46 SE6       30.34R
BOISE          FAIR      62  27  26 NW12      30.19S
SPOKANE        FAIR      62  23  22 N7        30.32S
$$

REGIONAL REPORTS...ALBERTA

CITY           SKY/WX    TMP DP  RH WIND       PRES   REMARKS
CALGARY        PTCLDY    50  21  32 S12G20    30.31F
CARDSTON         N/A     50  23  34 S7          N/A
EDMONTON       CLEAR     54  19  26 SW6       30.26F
FORT MCMURRAY  CLEAR     55  23  28 SW8       30.17F
HIGH LEVEL     MOCLDY    54  23  30 SE7       30.03F
LETHBRIDGE     CLEAR     52  21  30 SW8       30.37S
LLOYDMINSTER   PTCLDY    48  27  43 W3        30.30S
MEDICINE HAT   CLEAR     54  25  32 W5        30.38R
MILK RIVER       N/A     52  21  30 SW6         N/A
ONEFOUR          N/A     48  27  43 NW6         N/A
PEACE RIVER    MOCLDY    45  28  53 SW9       30.15F
PINCHER CREEK  CLEAR     50  23  34 SE9       30.35S
WATERTON GATE    N/A     48  19  32 SW7         N/A
$$

REGIONAL REPORTS...SASKATCHEWAN

CITY           SKY/WX    TMP DP  RH WIND       PRES   REMARKS
CYPRESS HILLS    N/A     43  14  31 N3          N/A
ESTEVAN        MOCLDY    43  21  42 N12       30.33R
MOOSE JAW        N/A     46  18  31 NW8         N/A
PRINCE ALBERT  PTCLDY    48  27  43 NE5       30.32R
REGINA         PTCLDY    46  23  39 N7        30.34R
ROCKGLEN         N/A     45  18  33 N9          N/A
SASKATOON      PTCLDY    48  27  43 NW6       30.34R
SWIFT CURRENT  CLEAR     45  21  39 N6        30.36R
VAL MARIE        N/A     46  18  31 N9          N/A
$$



USA.gov is the U.S. government's official web portal to all federal, state and local government web resources and services.